Weather History for Torrington, WY

Change the Weather History Date:

Saturday, July 13, 2013

  Actual Average Record
Temperature  
Mean Temperature 78 °F 74 °F  
Max Temperature 96 °F 90 °F 103 °F (2003)
Min Temperature 60 °F 58 °F 47 °F (2008)
Degree Days  
Heating Degree Days 0 0  
Month to date heating degree days 0 0  
Since 1 June heating degree days 34 75  
Since 1 July heating degree days 0 0  
Cooling Degree Days 13 9  
Month to date cooling degree days 142 106  
Year to date cooling degree days 341 240  
Since 1 June cooling degree days 302 222  
Growing Degree Days 27 (Base 50)    
Moisture  
Dew Point 58 °F    
Average Humidity 61    
Maximum Humidity 100    
Minimum Humidity 22    
Precipitation  
Precipitation T in 0.07 in 0.69 in (2011)
Month to date precipitation 0.42 0.57  
Year to date precipitation 5.84 8.46  
Sea Level Pressure  
Sea Level Pressure 29.89 in    
Wind  
Wind Speed 7 mph (SW)    
Max Wind Speed 21 mph    
Max Gust Speed 28 mph    
Visibility 10 miles    
Events Rain , Thunderstorm    
T = Trace of Precipitation, MM = Missing Value Source: NWS Daily Summary

Daily Weather History Graph

Daily Weather History Graph

Search for Another Location

Airport:

Trip Planner

Search our weather history database for the weather conditions in past years. The results will help you decide how hot, cold, wet, or windy it might be!

Date:

Astronomy

Jul. 13, 2013 Rise Set
Actual Time 5:32 AM MDT 8:31 PM MDT
Civil Twilight 4:59 AM MDT 9:05 PM MDT
Nautical Twilight 4:16 AM MDT 9:47 PM MDT
Astronomical Twilight 3:26 AM MDT 10:37 PM MDT
Moon 10:57 AM MDT (7/13) 11:06 PM MDT (7/13)
Length of Visible Light 16h 05m
Length of Day
14h 58m
Waxing Crescent, 26% of the Moon is Illuminated
Jul 13
Waxing Crescent
Jul 15
First Quarter
Jul 22
Full
Jul 29
Last Quarter
Aug 6
New

Hourly Weather History & Observations

Time (MDT) Temp. Heat Index Dew Point Humidity Pressure Visibility Wind Dir Wind Speed Gust Speed Precip Events Conditions
12:53 AM 66.0 °F - 63.0 °F 90% 29.85 in 10.0 mi East 8.1 mph - N/A   Mostly Cloudy
1:53 AM 64.9 °F - 62.1 °F 90% 29.85 in 10.0 mi WSW 3.5 mph - 0.00 in   Clear
2:53 AM 62.1 °F - 61.0 °F 96% 29.85 in 10.0 mi East 5.8 mph - N/A   Clear
3:53 AM 64.0 °F - 61.0 °F 90% 29.86 in 10.0 mi ESE 6.9 mph - N/A   Clear
4:53 AM 62.1 °F - 60.1 °F 93% 29.89 in 10.0 mi East 3.5 mph - N/A   Clear
5:53 AM 61.0 °F - 60.1 °F 97% 29.91 in 10.0 mi East 6.9 mph - N/A   Clear
6:53 AM 64.9 °F - 61.0 °F 87% 29.91 in 10.0 mi Calm Calm - N/A   Clear
7:53 AM 68.0 °F - 62.1 °F 81% 29.91 in 10.0 mi SE 3.5 mph - N/A   Clear
8:53 AM 73.0 °F - 62.1 °F 68% 29.91 in 10.0 mi Variable 3.5 mph - N/A   Clear
9:53 AM 77.0 °F - 62.1 °F 60% 29.90 in 10.0 mi South 4.6 mph - N/A   Clear
10:53 AM 84.0 °F 84.4 °F 61.0 °F 46% 29.88 in 10.0 mi WSW 6.9 mph - N/A   Clear
11:53 AM 84.9 °F 84.4 °F 59.0 °F 41% 29.87 in 10.0 mi Variable 3.5 mph - N/A   Clear
12:53 PM 91.0 °F - 52.0 °F 26% 29.86 in 10.0 mi West 9.2 mph 16.1 mph N/A   Clear
1:53 PM 93.0 °F - 51.1 °F 24% 29.85 in 10.0 mi WNW 8.1 mph - N/A   Clear
2:53 PM 93.0 °F - 48.9 °F 22% 29.83 in 10.0 mi NW 8.1 mph - N/A   Clear
3:53 PM 91.9 °F - 48.0 °F 22% 29.83 in 10.0 mi North 4.6 mph - N/A   Clear
4:53 PM 91.0 °F - 48.0 °F 23% 29.83 in 10.0 mi Calm Calm - N/A   Mostly Cloudy
5:36 PM 86.0 °F 84.2 °F 53.6 °F 33% 30.01 in 10.0 mi West 9.2 mph - N/A Thunderstorm Overcast
5:51 PM 86.0 °F 84.5 °F 55.4 °F 35% 30.00 in 10.0 mi South 11.5 mph - N/A   Mostly Cloudy
5:53 PM 87.1 °F 85.7 °F 55.9 °F 35% 29.85 in 10.0 mi South 8.1 mph 18.4 mph N/A   Mostly Cloudy
6:53 PM 82.9 °F 82.4 °F 57.0 °F 41% 29.87 in 10.0 mi WSW 10.4 mph 18.4 mph N/A   Mostly Cloudy
7:53 PM 77.0 °F - 60.1 °F 56% 29.91 in 10.0 mi WSW 13.8 mph - N/A   Mostly Cloudy
8:53 PM 75.9 °F - 60.1 °F 58% 29.90 in 10.0 mi West 11.5 mph - N/A   Partly Cloudy
9:53 PM 71.1 °F - 62.1 °F 73% 29.93 in 10.0 mi WSW 10.4 mph - 0.00 in Rain Light Rain
10:53 PM 71.1 °F - 60.1 °F 68% 29.94 in 10.0 mi SW 12.7 mph 21.9 mph 0.00 in   Partly Cloudy
11:53 PM 72.0 °F - 59.0 °F 64% 29.91 in 10.0 mi West 5.8 mph - N/A   Clear